Location: Unspecified
(47.2333°N, 39.7000°E)
Time: 05:47:50
(UTC+00:00)

ISS - Pass Details

Date: 12 March 2021
Orbit: 418 x 422 km, 51.6° (Epoch: 16 April)

Event Time Altitude Azimuth Distance (km) Brightness Sun altitude
Exits shadow 01:42:35 30° 157° (SSE) 783 -2.4 -20.5°
Drops below altitude 10° 01:44:33 10° 138° (SE) 1,492 -0.7 -20.2°
Sets 01:46:40 0° 133° (SE) 2,353 0.5 -19.9°
